ON7SD-5 Weather Reports


Display with metric or nautical units.
time (UTC)temp
F
wind
direction
speed
MPH
gust
MPH
rain 1hr
in
rain 24hr
in
rain mn
in
humidity
%
barometer
mb
20260507113702 62 8 1.0 4.0 0.00 0.00 0.00 56 1014.9
20260507113202 62 8 1.0 5.0 0.00 0.00 0.00 57 1015.0
20260507112702 61 8 1.0 3.0 0.00 0.00 0.00 58 1015.0
20260507112202 61 8 0.0 4.0 0.00 0.00 0.00 57 1015.0
20260507111702 61 8 0.0 3.0 0.00 0.00 0.00 58 1015.1
20260507111202 61 8 0.0 3.0 0.00 0.00 0.00 58 1015.1
20260507110702 61 8 0.0 3.0 0.00 0.00 0.00 59 1015.2
20260507110202 61 8 0.0 1.0 0.00 0.00 0.00 58 1015.2
20260507105702 61 8 0.0 1.0 0.00 0.00 0.00 60 1015.2
20260507105202 60 8 0.0 3.0 0.00 0.00 0.00 62 1015.2
20260507104702 60 8 0.0 1.0 0.00 0.00 0.00 62 1015.2
20260507104202 60 8 0.0 2.0 0.00 0.00 0.00 62 1015.3
20260507103702 59 8 0.0 2.0 0.00 0.00 0.00 62 1015.3
20260507103202 59 8 1.0 5.0 0.00 0.00 0.00 62 1015.4
20260507102702 59 8 0.0 4.0 0.00 0.00 0.00 63 1015.4
20260507102202 59 8 0.0 1.0 0.00 0.00 0.00 63 1015.5
20260507101702 59 8 0.0 2.0 0.00 0.00 0.00 66 1015.4
20260507101202 59 8 0.0 0.0 0.00 0.00 0.00 64 1015.4
20260507100702 59 8 0.0 0.0 0.00 0.00 0.00 65 1015.3
20260507100202 58 8 0.0 0.0 0.00 0.00 0.00 66 1015.3
20260507095702 58 8 0.0 0.0 0.00 0.00 0.00 68 1015.3
20260507095202 57 8 0.0 0.0 0.00 0.00 0.00 68 1015.3
20260507094702 57 8 0.0 0.0 0.00 0.00 0.00 69 1015.2
20260507094202 57 8 0.0 0.0 0.00 0.00 0.00 68 1015.3
20260507093702 57 8 0.0 0.0 0.00 0.00 0.00 68 1015.2
20260507093202 57 8 0.0 0.0 0.00 0.00 0.00 70 1015.2
20260507092702 57 8 0.0 0.0 0.00 0.00 0.00 72 1015.2
20260507092202 57 8 0.0 0.0 0.00 0.00 0.00 72 1015.2
20260507091702 56 8 0.0 3.0 0.00 0.00 0.00 72 1015.2
20260507091202 56 8 0.0 0.0 0.00 0.00 0.00 72 1015.2
20260507090702 56 8 0.0 0.0 0.00 0.00 0.00 76 1015.1
20260507090202 55 8 0.0 0.0 0.00 0.00 0.00 75 1015.1
20260507085702 55 8 0.0 0.0 0.00 0.00 0.00 73 1015.1
20260507085202 55 8 0.0 0.0 0.00 0.00 0.00 76 1015.0
20260507084702 54 8 0.0 0.0 0.00 0.00 0.00 77 1015.0
20260507084202 54 8 0.0 0.0 0.00 0.00 0.00 81 1015.0
20260507083702 54 8 0.0 0.0 0.00 0.00 0.00 82 1014.9
20260507083202 53 8 0.0 0.0 0.00 0.00 0.00 83 1014.9
20260507082702 53 8 0.0 0.0 0.00 0.00 0.00 83 1014.9
20260507082202 53 8 0.0 0.0 0.00 0.00 0.00 85 1014.9
20260507081702 53 8 0.0 0.0 0.00 0.00 0.00 86 1014.8
20260507081202 52 8 0.0 0.0 0.00 0.00 0.00 88 1014.8
20260507080702 52 8 0.0 0.0 0.00 0.00 0.00 88 1014.8
20260507080202 52 8 0.0 0.0 0.00 0.00 0.00 88 1014.8
20260507075702 51 8 0.0 0.0 0.00 0.00 0.00 90 1014.7
20260507075202 51 8 0.0 0.0 0.00 0.00 0.00 90 1014.8
20260507074702 51 8 0.0 0.0 0.00 0.00 0.00 90 1014.8
20260507074202 50 8 0.0 0.0 0.00 0.00 0.00 91 1014.8
20260507073702 50 8 0.0 0.0 0.00 0.00 0.00 93 1014.7
20260507073203 50 8 0.0 0.0 0.00 0.00 0.00 95 1014.7
20260507072703 50 8 0.0 0.0 0.00 0.00 0.00 95 1014.7
20260507072203 50 8 0.0 0.0 0.00 0.00 0.00 96 1014.6
20260507071703 50 8 0.0 0.0 0.00 0.00 0.00 96 1014.6
20260507071203 50 8 0.0 0.0 0.00 0.00 0.00 96 1014.5
20260507070703 50 8 0.0 0.0 0.00 0.00 0.00 96 1014.5
20260507070203 49 8 0.0 0.0 0.00 0.00 0.00 96 1014.5
20260507065703 49 8 0.0 0.0 0.00 0.00 0.00 96 1014.5
20260507065203 49 8 0.0 0.0 0.00 0.00 0.00 96 1014.5
20260507064703 49 8 0.0 0.0 0.00 0.00 0.00 96 1014.4
20260507064203 49 8 0.0 0.0 0.00 0.00 0.00 96 1014.4
20260507063703 49 8 0.0 0.0 0.00 0.00 0.00 96 1014.4
20260507063203 49 8 0.0 0.0 0.00 0.00 0.00 96 1014.4
20260507062703 48 8 0.0 0.0 0.00 0.00 0.00 96 1014.3
20260507062203 48 8 0.0 0.0 0.00 0.00 0.00 96 1014.3
20260507061703 48 8 0.0 0.0 0.00 0.00 0.00 96 1014.3
20260507061203 48 8 0.0 0.0 0.00 0.00 0.00 96 1014.2
20260507060703 48 8 0.0 0.0 0.00 0.00 0.00 96 1014.2
20260507060203 48 8 0.0 0.0 0.00 0.00 0.00 96 1014.2
20260507055703 48 8 0.0 0.0 0.00 0.00 0.00 96 1014.1
20260507055203 48 8 0.0 0.0 0.00 0.00 0.00 96 1014.1
20260507054703 48 8 0.0 0.0 0.00 0.00 0.00 96 1014.0
20260507054203 48 8 0.0 0.0 0.00 0.00 0.00 96 1014.1
20260507053703 48 8 0.0 0.0 0.00 0.00 0.00 96 1014.0
20260507053203 47 8 0.0 0.0 0.00 0.00 0.00 96 1013.9
20260507052703 47 8 0.0 0.0 0.00 0.00 0.00 96 1013.9
20260507052203 47 8 0.0 0.0 0.00 0.00 0.00 96 1013.8
20260507051703 47 8 0.0 0.0 0.00 0.00 0.00 96 1013.7
20260507051203 47 8 0.0 0.0 0.00 0.00 0.00 96 1013.7
20260507050703 47 8 0.0 0.0 0.00 0.00 0.00 96 1013.6
20260507050203 47 8 0.0 0.0 0.00 0.00 0.00 96 1013.5
20260507045703 47 8 0.0 0.0 0.00 0.00 0.00 96 1013.5
20260507045203 47 8 0.0 0.0 0.00 0.00 0.00 96 1013.5
20260507044703 47 8 0.0 0.0 0.00 0.00 0.00 96 1013.4
20260507044203 47 8 0.0 0.0 0.00 0.00 0.00 96 1013.5
20260507043703 47 8 0.0 0.0 0.00 0.00 0.00 96 1013.4
20260507043203 47 8 0.0 1.0 0.00 0.00 0.00 96 1013.4
20260507042703 47 8 0.0 0.0 0.00 0.00 0.00 96 1013.5
20260507042203 47 8 0.0 0.0 0.00 0.00 0.00 96 1013.4
20260507041703 47 8 0.0 0.0 0.00 0.00 0.00 96 1013.4
20260507041203 47 8 0.0 0.0 0.00 0.00 0.00 96 1013.3
20260507040703 47 8 0.0 0.0 0.00 0.00 0.00 96 1013.3
20260507040203 46 8 0.0 0.0 0.00 0.00 0.00 96 1013.3
20260507035703 46 8 0.0 0.0 0.00 0.00 0.00 96 1013.2
20260507035203 46 8 0.0 0.0 0.00 0.00 0.00 96 1013.1
20260507034703 46 8 0.0 0.0 0.00 0.00 0.00 96 1013.1
20260507034203 46 8 0.0 0.0 0.00 0.00 0.00 96 1013.1
20260507033703 46 8 0.0 0.0 0.00 0.00 0.00 96 1013.0
20260507033203 46 8 0.0 0.0 0.00 0.00 0.00 96 1013.0
20260507032703 46 8 0.0 0.0 0.00 0.00 0.00 96 1013.0
20260507032203 46 8 0.0 0.0 0.00 0.00 0.00 96 1013.0
20260507031703 46 8 0.0 0.0 0.00 0.00 0.00 96 1012.9
20260507031203 46 8 0.0 0.0 0.00 0.00 0.00 96 1012.9
20260507030703 45 8 0.0 0.0 0.00 0.00 0.00 96 1012.9
20260507030203 45 8 0.0 0.0 0.00 0.00 0.00 96 1012.9
20260507025703 45 8 0.0 0.0 0.00 0.00 0.00 96 1012.9
20260507025203 45 8 0.0 0.0 0.00 0.00 0.00 96 1012.8
20260507024703 45 8 0.0 0.0 0.00 0.00 0.00 96 1012.9
20260507024203 45 8 0.0 0.0 0.00 0.00 0.00 96 1012.8
20260507023703 45 8 0.0 0.0 0.00 0.00 0.00 96 1012.8
20260507023203 45 8 0.0 0.0 0.00 0.00 0.00 96 1012.8
20260507022703 45 8 0.0 0.0 0.00 0.00 0.00 96 1012.9
20260507022203 45 8 0.0 0.0 0.00 0.00 0.00 96 1012.8
20260507021703 45 8 0.0 0.0 0.00 0.00 0.00 96 1012.8
20260507021203 45 8 0.0 0.0 0.00 0.00 0.00 96 1012.7
20260507020703 45 8 0.0 0.0 0.00 0.00 0.00 96 1012.7
20260507020203 45 8 0.0 0.0 0.00 0.00 0.00 96 1012.6
20260507015703 44 8 0.0 0.0 0.00 0.00 0.00 96 1012.6
20260507015203 44 8 0.0 0.0 0.00 0.00 0.00 96 1012.6
20260507014703 44 8 0.0 0.0 0.00 0.00 0.00 96 1012.6
20260507014203 43 8 0.0 0.0 0.00 0.00 0.00 95 1012.6
20260507013703 43 8 0.0 0.0 0.00 0.00 0.00 95 1012.6
20260507013203 43 8 0.0 0.0 0.00 0.00 0.00 95 1012.6
20260507012703 43 8 0.0 0.0 0.00 0.00 0.00 95 1012.5
20260507012203 43 8 0.0 0.0 0.00 0.00 0.00 95 1012.5
20260507011703 43 8 0.0 0.0 0.00 0.00 0.00 95 1012.5
20260507011203 43 8 0.0 0.0 0.00 0.00 0.00 95 1012.5
20260507010703 43 8 0.0 0.0 0.00 0.00 0.00 95 1012.4
20260507010203 43 8 0.0 0.0 0.00 0.00 0.00 95 1012.5
20260507005703 43 8 0.0 0.0 0.00 0.00 0.00 95 1012.5
20260507005203 43 8 0.0 0.0 0.00 0.00 0.00 95 1012.4
20260507004703 43 8 0.0 0.0 0.00 0.00 0.00 95 1012.5
20260507004203 43 8 0.0 0.0 0.00 0.00 0.00 94 1012.5
20260507003703 43 8 0.0 0.0 0.00 0.00 0.00 94 1012.5
20260507003203 43 8 0.0 0.0 0.00 0.00 0.00 94 1012.5
20260507002703 43 8 0.0 0.0 0.00 0.00 0.00 94 1012.5
20260507002203 44 8 0.0 0.0 0.00 0.00 0.00 94 1012.5
20260507001703 44 8 0.0 0.0 0.00 0.00 0.00 94 1012.5
20260507001203 44 8 0.0 0.0 0.00 0.00 0.00 94 1012.5
20260507000703 44 8 0.0 0.0 0.00 0.00 0.00 94 1012.5
20260507000205 45 8 0.0 0.0 0.00 0.00 0.00 94 1012.5
20260506235703 45 8 0.0 0.0 0.00 0.00 0.00 94 1012.4
20260506235203 45 8 0.0 0.0 0.00 0.00 0.00 94 1012.4
20260506234703 45 8 0.0 0.0 0.00 0.00 0.00 94 1012.3
20260506234203 45 8 0.0 0.0 0.00 0.00 0.00 94 1012.3
20260506233703 45 8 0.0 0.0 0.00 0.00 0.00 93 1012.3
20260506233203 45 8 0.0 0.0 0.00 0.00 0.00 93 1012.3
20260506232703 45 8 0.0 0.0 0.00 0.00 0.00 93 1012.3
20260506232203 46 8 0.0 0.0 0.00 0.00 0.00 93 1012.2
20260506231703 45 8 0.0 0.0 0.00 0.00 0.00 93 1012.2
20260506231203 45 8 0.0 0.0 0.00 0.00 0.00 93 1012.2
20260506230703 45 8 0.0 0.0 0.00 0.00 0.00 92 1012.1
20260506230203 45 8 0.0 0.0 0.00 0.00 0.00 92 1012.1
20260506225703 46 8 0.0 0.0 0.00 0.00 0.00 92 1012.1
20260506225203 46 8 0.0 0.0 0.00 0.00 0.00 92 1012.1
20260506224703 46 8 0.0 0.0 0.00 0.00 0.00 91 1012.1
20260506224203 46 8 0.0 0.0 0.00 0.00 0.00 92 1012.0
20260506223703 47 8 0.0 0.0 0.00 0.00 0.00 92 1011.9
20260506223203 47 8 0.0 0.0 0.00 0.00 0.00 90 1011.9
20260506222703 47 8 0.0 0.0 0.00 0.00 0.00 91 1011.9
20260506222203 47 8 0.0 0.0 0.00 0.00 0.00 91 1011.9
20260506221703 48 8 0.0 0.0 0.00 0.00 0.00 90 1011.9
20260506221203 48 8 0.0 0.0 0.00 0.00 0.00 90 1011.8
20260506220703 48 8 0.0 0.0 0.00 0.00 0.00 89 1011.9
20260506220203 48 8 0.0 0.0 0.00 0.00 0.00 89 1011.9
20260506215703 48 8 0.0 0.0 0.00 0.00 0.00 88 1011.9
20260506215203 49 8 0.0 0.0 0.00 0.00 0.00 88 1011.8
20260506214703 49 8 0.0 0.0 0.00 0.00 0.00 88 1011.7
20260506214203 49 8 0.0 0.0 0.00 0.00 0.00 88 1011.8
20260506213703 50 8 0.0 0.0 0.00 0.00 0.00 88 1011.7
20260506213203 50 8 0.0 0.0 0.00 0.00 0.00 88 1011.8
20260506212703 50 8 0.0 0.0 0.00 0.00 0.00 88 1011.7
20260506212203 50 8 0.0 0.0 0.00 0.00 0.00 88 1011.7
20260506211703 50 8 0.0 0.0 0.00 0.00 0.00 87 1011.7
20260506211203 50 8 0.0 0.0 0.00 0.00 0.00 87 1011.6
20260506210703 50 8 0.0 0.0 0.00 0.00 0.00 87 1011.5
20260506210203 50 8 0.0 0.0 0.00 0.00 0.00 86 1011.5
20260506205703 51 8 0.0 0.0 0.00 0.00 0.00 86 1011.5
20260506205204 51 8 0.0 0.0 0.00 0.00 0.00 85 1011.5
20260506204704 51 8 0.0 0.0 0.00 0.00 0.00 85 1011.4
20260506204203 51 8 0.0 0.0 0.00 0.00 0.00 85 1011.4
20260506203703 51 8 0.0 0.0 0.00 0.00 0.00 84 1011.3
20260506203203 52 8 0.0 0.0 0.00 0.00 0.00 84 1011.3
20260506202704 52 8 0.0 0.0 0.00 0.00 0.00 84 1011.3
20260506202203 52 8 0.0 4.0 0.00 0.00 0.00 83 1011.2
20260506201703 52 8 0.0 0.0 0.00 0.00 0.00 83 1011.2
20260506201204 52 8 0.0 0.0 0.00 0.00 0.00 82 1011.1
20260506200704 52 8 0.0 0.0 0.00 0.00 0.00 81 1011.1
20260506200204 53 8 0.0 2.0 0.00 0.00 0.00 80 1011.1
20260506195704 53 8 0.0 3.0 0.00 0.00 0.00 80 1011.0
20260506195204 53 8 1.0 4.0 0.00 0.00 0.00 80 1011.0
20260506194704 53 8 1.0 4.0 0.00 0.00 0.00 79 1010.9
20260506194204 53 8 1.0 6.0 0.00 0.00 0.00 79 1010.9
20260506193704 53 8 1.0 6.0 0.00 0.00 0.00 78 1010.8
20260506193204 53 8 1.0 4.0 0.00 0.00 0.00 78 1010.8
20260506192704 54 8 1.0 7.0 0.00 0.00 0.00 77 1010.7
20260506192204 54 8 1.0 6.0 0.00 0.00 0.00 77 1010.6
20260506191704 54 8 1.0 3.0 0.00 0.00 0.00 76 1010.6
20260506191204 54 8 1.0 4.0 0.00 0.00 0.00 76 1010.6
20260506190704 54 9 2.0 7.0 0.00 0.00 0.00 75 1010.5
20260506190204 54 9 2.0 8.0 0.00 0.00 0.00 74 1010.5
20260506185704 54 4 2.0 6.0 0.00 0.00 0.00 73 1010.5
20260506185204 55 4 1.0 8.0 0.00 0.00 0.00 73 1010.5
20260506184704 55 1 1.0 2.0 0.00 0.00 0.00 72 1010.3
20260506184204 55 1 1.0 7.0 0.00 0.00 0.00 71 1010.4
20260506183704 56 1 1.0 5.0 0.00 0.00 0.00 71 1010.3
20260506183204 56 1 1.0 5.0 0.00 0.00 0.00 71 1010.2
20260506182704 57 2 1.0 6.0 0.00 0.00 0.00 70 1010.2
20260506182204 57 1 1.0 3.0 0.00 0.00 0.00 69 1010.2
20260506181704 56 1 2.0 7.0 0.00 0.00 0.00 68 1010.1
20260506181204 57 1 2.0 9.0 0.00 0.00 0.00 68 1010.0
20260506180704 57 14 1.0 7.0 0.00 0.00 0.00 68 1009.9
20260506180204 57 13 2.0 6.0 0.00 0.00 0.00 70 1009.8
20260506175704 56 13 2.0 7.0 0.00 0.00 0.00 70 1009.8
20260506175204 57 13 2.0 6.0 0.00 0.00 0.00 68 1009.8
20260506174704 57 11 3.0 6.0 0.00 0.00 0.00 69 1009.8
20260506174204 57 8 3.0 9.0 0.00 0.00 0.00 68 1009.6
20260506173704 58 8 2.0 9.0 0.00 0.00 0.00 68 1009.6
20260506173204 58 6 2.0 7.0 0.00 0.00 0.00 67 1009.5
20260506172704 58 7 3.0 12.0 0.00 0.00 0.00 67 1009.4
20260506172204 58 73 3.0 10.0 0.00 0.00 0.00 66 1009.4
20260506171704 58 21 4.0 10.0 0.00 0.00 0.00 65 1009.4
20260506171204 59 20 3.0 10.0 0.00 0.00 0.00 65 1009.3
20260506170704 59 3 3.0 10.0 0.00 0.00 0.00 63 1009.3
20260506170204 59 8 4.0 12.0 0.00 0.00 0.00 62 1009.2
20260506165704 59 5 4.0 10.0 0.00 0.00 0.00 59 1009.2
20260506165204 59 13 4.0 10.0 0.00 0.00 0.00 62 1009.1
20260506164704 59 10 3.0 9.0 0.00 0.00 0.00 60 1009.1
20260506164204 60 14 2.0 6.0 0.00 0.00 0.00 62 1009.1
20260506163704 59 15 3.0 9.0 0.00 0.00 0.00 64 1009.1
20260506163204 60 22 3.0 9.0 0.00 0.00 0.00 64 1009.1
20260506162704 60 7 2.0 8.0 0.00 0.00 0.00 64 1009.1
20260506162204 61 15 0.0 7.0 0.00 0.00 0.00 64 1009.0
20260506161704 60 15 2.0 5.0 0.00 0.00 0.00 62 1009.0
20260506161204 60 0 3.0 9.0 0.00 0.00 0.00 61 1009.0
20260506160704 61 17 3.0 7.0 0.00 0.00 0.00 61 1009.0
20260506160204 61 5 3.0 8.0 0.00 0.00 0.00 62 1009.0
20260506155704 61 13 4.0 12.0 0.00 0.00 0.00 61 1009.0
20260506155204 61 7 3.0 11.0 0.00 0.00 0.00 62 1009.0
20260506154704 62 29 3.0 7.0 0.00 0.00 0.00 62 1008.9
20260506154204 61 2 5.0 11.0 0.00 0.00 0.00 62 1008.9
20260506153704 61 8 3.0 10.0 0.00 0.00 0.00 63 1008.9
20260506153204 62 16 2.0 8.0 0.00 0.00 0.00 62 1009.0
20260506152704 61 24 2.0 7.0 0.00 0.00 0.00 63 1009.0
20260506152204 61 15 2.0 10.0 0.00 0.00 0.00 64 1008.9
20260506151704 60 7 2.0 9.0 0.00 0.00 0.00 65 1009.0
20260506151204 60 23 2.0 10.0 0.00 0.00 0.00 65 1008.9
20260506150704 60 30 3.0 7.0 0.00 0.00 0.00 64 1008.9
20260506150204 60 4 3.0 9.0 0.00 0.00 0.00 64 1009.0
20260506145704 60 8 2.0 8.0 0.00 0.00 0.00 64 1008.9
20260506145204 60 13 1.0 5.0 0.00 0.00 0.00 64 1008.9
20260506144704 60 23 2.0 9.0 0.00 0.00 0.00 64 1008.9
20260506144204 60 1 1.0 6.0 0.00 0.00 0.00 64 1008.9
20260506143704 60 7 2.0 6.0 0.00 0.00 0.00 64 1008.9
20260506143204 60 1 2.0 8.0 0.00 0.00 0.00 65 1008.9
20260506142704 59 12 3.0 6.0 0.00 0.00 0.00 66 1008.9
20260506142204 59 11 3.0 9.0 0.00 0.00 0.00 65 1008.9
20260506141704 59 11 2.0 5.0 0.00 0.00 0.00 66 1008.9
20260506141204 59 12 3.0 9.0 0.00 0.00 0.00 67 1009.0
20260506140704 59 9 3.0 9.0 0.00 0.00 0.00 67 1008.9
20260506140204 59 1 3.0 9.0 0.00 0.00 0.00 66 1008.9
20260506135704 59 4 2.0 8.0 0.00 0.00 0.00 67 1008.9
20260506135204 59 3 1.0 7.0 0.00 0.00 0.00 67 1008.9
20260506134704 59 1 1.0 5.0 0.00 0.00 0.00 69 1009.0
20260506134204 59 1 1.0 6.0 0.00 0.00 0.00 68 1009.0
20260506133704 59 7 2.0 8.0 0.00 0.00 0.00 68 1009.0
20260506133204 59 351 2.0 9.0 0.00 0.00 0.00 68 1009.1
20260506132704 59 340 2.0 6.0 0.00 0.00 0.00 70 1009.1
20260506132204 58 328 2.0 10.0 0.00 0.00 0.00 71 1009.0
20260506131704 58 11 2.0 6.0 0.00 0.00 0.00 70 1009.0
20260506131204 58 11 2.0 9.0 0.00 0.00 0.00 71 1009.0
20260506130704 58 11 2.0 6.0 0.00 0.00 0.00 70 1009.0
20260506130204 58 11 2.0 6.0 0.00 0.00 0.00 71 1008.9
20260506125704 58 11 2.0 7.0 0.00 0.00 0.00 71 1008.9
20260506125204 59 12 2.0 6.0 0.00 0.00 0.00 70 1008.8
20260506124704 58 15 3.0 7.0 0.00 0.00 0.00 71 1008.8
20260506124204 58 12 3.0 9.0 0.00 0.00 0.00 69 1008.8
20260506123704 58 11 1.0 7.0 0.00 0.00 0.00 69 1008.8
20260506123204 58 11 1.0 6.0 0.00 0.00 0.00 71 1008.8
20260506122704 58 11 2.0 7.0 0.00 0.00 0.00 72 1008.8
20260506122204 58 11 2.0 6.0 0.00 0.00 0.00 72 1008.8
20260506121704 58 13 1.0 9.0 0.00 0.00 0.00 71 1008.8
20260506121204 58 6 1.0 6.0 0.00 0.00 0.00 72 1008.9
20260506120704 58 6 1.0 6.0 0.00 0.00 0.00 73 1008.8
20260506120204 57 4 2.0 5.0 0.00 0.00 0.00 73 1008.8
20260506115704 57 4 3.0 7.0 0.00 0.00 0.00 72 1008.8
20260506115204 57 5 2.0 9.0 0.00 0.00 0.00 71 1008.8
20260506114704 58 5 1.0 6.0 0.00 0.00 0.00 71 1008.8
20260506114204 59 5 1.0 9.0 0.00 0.00 0.00 70 1008.8